When you browse on this site, cookies collect data to enhance your experience and personalize the content and advertising you see.
Visit our Privacy Policy to learn more. By continuing to use the site, you agree to this use of cookies and data.
EN

Hourly Weather Blagodatnaya

Today, 12 August, Wednesday

Time Temperature Precipitation Wind Pressure Humidity
00:00 +13°C° 0 mm 1 mps 751 mmHg 87%
01:00 +13°C° 0 mm 1 mps 750 mmHg 87%
02:00 +13°C° 0 mm 1 mps 750 mmHg 88%
03:00 +12°C° 0 mm 1 mps 750 mmHg 89%
04:00 +13°C° 0 mm 1 mps 751 mmHg 87%
05:00 +14°C° 0 mm 1 mps 751 mmHg 85%
06:00 +15°C° 0 mm 1 mps 751 mmHg 83%
07:00 +16°C° 0 mm 1 mps 751 mmHg 79%
08:00 +19°C° 0 mm 1 mps 751 mmHg 74%
09:00 +20°C° 0 mm 1 mps 751 mmHg 69%
10:00 +21°C° 0.1 mm 1 mps 751 mmHg 66%
11:00 +22°C° 0.1 mm 1 mps 751 mmHg 62%
12:00 +21°C° 0.1 mm 2 mps 751 mmHg 59%
13:00 +21°C° 0.1 mm 2 mps 751 mmHg 59%
14:00 +21°C° 0.1 mm 2 mps 751 mmHg 58%
15:00 +23°C° 0.1 mm 2 mps 751 mmHg 58%
16:00 +21°C° 0.1 mm 2 mps 751 mmHg 63%
17:00 +20°C° 0.1 mm 2 mps 751 mmHg 68%
18:00 +19°C° 0.1 mm 2 mps 751 mmHg 72%
19:00 +18°C° 0 mm 2 mps 751 mmHg 75%
20:00 +17°C° 0 mm 2 mps 751 mmHg 78%
21:00 +14°C° 0 mm 3 mps 751 mmHg 81%
22:00 +14°C° 0 mm 3 mps 751 mmHg 82%
23:00 +13°C° 0 mm 3 mps 751 mmHg 82%

Tomorrow, 13 August, Thursday

Time Temperature Precipitation Wind Pressure Humidity
00:00 +13°C° 0 mm 3 mps 751 mmHg 83%
01:00 +13°C° 0 mm 3 mps 751 mmHg 83%
02:00 +13°C° 0 mm 2 mps 751 mmHg 82%
03:00 +13°C° 0 mm 2 mps 751 mmHg 82%
04:00 +13°C° 0 mm 3 mps 751 mmHg 81%
05:00 +13°C° 0 mm 3 mps 751 mmHg 81%
06:00 +13°C° 0 mm 3 mps 751 mmHg 80%
07:00 +14°C° 0.3 mm 3 mps 750 mmHg 81%
08:00 +14°C° 0.3 mm 3 mps 750 mmHg 82%
09:00 +14°C° 0.3 mm 3 mps 750 mmHg 83%
10:00 +16°C° 0.3 mm 3 mps 750 mmHg 83%
11:00 +16°C° 0.3 mm 3 mps 750 mmHg 84%
12:00 +16°C° 0.3 mm 3 mps 750 mmHg 84%
13:00 +16°C° 0 mm 3 mps 749 mmHg 82%
14:00 +17°C° 0 mm 4 mps 749 mmHg 79%
15:00 +18°C° 0 mm 4 mps 749 mmHg 76%
16:00 +18°C° 0 mm 4 mps 748 mmHg 77%
17:00 +18°C° 0 mm 4 mps 748 mmHg 77%
18:00 +18°C° 0 mm 4 mps 748 mmHg 77%
19:00 +17°C° 0 mm 4 mps 747 mmHg 77%
20:00 +16°C° 0 mm 5 mps 747 mmHg 76%
21:00 +15°C° 0 mm 5 mps 747 mmHg 75%
22:00 +15°C° 0.1 mm 5 mps 747 mmHg 76%
23:00 +15°C° 0.1 mm 5 mps 747 mmHg 77%

Day after tomorrow, 14 August, Friday

Time Temperature Precipitation Wind Pressure Humidity
00:00 +15°C° 0.1 mm 5 mps 746 mmHg 78%
01:00 +14°C° 0.1 mm 5 mps 746 mmHg 81%
02:00 +14°C° 0.1 mm 5 mps 746 mmHg 83%
03:00 +13°C° 0.1 mm 5 mps 746 mmHg 85%
04:00 +13°C° 0.1 mm 4 mps 746 mmHg 85%
05:00 +13°C° 0.1 mm 4 mps 746 mmHg 86%
06:00 +13°C° 0.1 mm 4 mps 745 mmHg 86%
07:00 +14°C° 0.2 mm 4 mps 745 mmHg 86%
08:00 +15°C° 0.2 mm 4 mps 745 mmHg 85%
09:00 +17°C° 0.2 mm 4 mps 745 mmHg 84%
10:00 +17°C° 0.3 mm 3 mps 745 mmHg 83%
11:00 +18°C° 0.3 mm 3 mps 745 mmHg 83%
12:00 +19°C° 0.3 mm 3 mps 745 mmHg 82%
13:00 +19°C° 1 mm 2 mps 745 mmHg 80%
14:00 +20°C° 1 mm 2 mps 745 mmHg 77%
15:00 +21°C° 1 mm 1 mps 745 mmHg 75%
16:00 +21°C° 0.8 mm 1 mps 745 mmHg 78%
17:00 +20°C° 0.8 mm 1 mps 744 mmHg 81%
18:00 +19°C° 0.8 mm 1 mps 744 mmHg 84%
19:00 +18°C° 0.1 mm 1 mps 744 mmHg 86%
20:00 +16°C° 0.1 mm 1 mps 744 mmHg 87%
21:00 +14°C° 0.1 mm 0 mps 744 mmHg 88%
22:00 +14°C° 0 mm 0 mps 745 mmHg 89%
23:00 +14°C° 0 mm 0 mps 745 mmHg 89%

15 August, Saturday

Time Temperature Precipitation Wind Pressure Humidity
00:00 +14°C° 0 mm 1 mps 745 mmHg 89%
01:00 +14°C° 0.1 mm 1 mps 745 mmHg 90%
02:00 +14°C° 0.1 mm 1 mps 745 mmHg 92%
03:00 +14°C° 0.1 mm 1 mps 745 mmHg 93%
04:00 +14°C° 0.2 mm 1 mps 745 mmHg 93%
05:00 +15°C° 0.2 mm 1 mps 745 mmHg 93%
06:00 +15°C° 0.2 mm 1 mps 745 mmHg 92%
07:00 +15°C° 0.5 mm 2 mps 745 mmHg 92%
08:00 +15°C° 0.5 mm 2 mps 745 mmHg 91%
09:00 +16°C° 0.5 mm 2 mps 745 mmHg 91%
10:00 +16°C° 0.4 mm 2 mps 745 mmHg 91%
11:00 +16°C° 0.4 mm 2 mps 745 mmHg 92%
12:00 +16°C° 0.4 mm 3 mps 745 mmHg 92%
13:00 +14°C° 0.3 mm 3 mps 745 mmHg 92%
14:00 +14°C° 0.3 mm 3 mps 745 mmHg 92%
15:00 +14°C° 0.3 mm 3 mps 745 mmHg 92%
16:00 +14°C° 0.1 mm 3 mps 745 mmHg 93%
17:00 +14°C° 0.1 mm 4 mps 745 mmHg 93%
18:00 +14°C° 0.1 mm 4 mps 745 mmHg 94%
19:00 +13°C° 0 mm 3 mps 745 mmHg 95%
20:00 +13°C° 0 mm 3 mps 745 mmHg 96%
21:00 +12°C° 0 mm 3 mps 745 mmHg 97%
22:00 +12°C° 0 mm 3 mps 745 mmHg 97%
23:00 +12°C° 0 mm 3 mps 745 mmHg 98%

16 August, Sunday

Time Temperature Precipitation Wind Pressure Humidity
00:00 +12°C° 0 mm 3 mps 745 mmHg 98%
01:00 +12°C° 0 mm 3 mps 746 mmHg 97%
02:00 +13°C° 0 mm 4 mps 746 mmHg 96%
03:00 +13°C° 0 mm 4 mps 746 mmHg 95%
04:00 +13°C° 0 mm 4 mps 746 mmHg 95%
05:00 +13°C° 0 mm 4 mps 746 mmHg 94%
06:00 +13°C° 0 mm 4 mps 746 mmHg 94%
07:00 +13°C° 0 mm 5 mps 746 mmHg 92%
08:00 +13°C° 0 mm 5 mps 746 mmHg 91%
09:00 +14°C° 0 mm 5 mps 747 mmHg 89%
10:00 +14°C° 0 mm 5 mps 747 mmHg 87%
11:00 +14°C° 0 mm 5 mps 747 mmHg 85%
12:00 +15°C° 0 mm 5 mps 747 mmHg 84%
13:00 +15°C° 0 mm 5 mps 747 mmHg 83%
14:00 +15°C° 0 mm 5 mps 747 mmHg 82%
15:00 +15°C° 0 mm 5 mps 748 mmHg 81%
16:00 +15°C° 0 mm 4 mps 748 mmHg 82%
17:00 +15°C° 0 mm 4 mps 748 mmHg 83%
18:00 +14°C° 0 mm 4 mps 748 mmHg 84%
19:00 +13°C° 0 mm 3 mps 748 mmHg 87%
20:00 +12°C° 0 mm 3 mps 748 mmHg 91%
21:00 +12°C° 0 mm 2 mps 748 mmHg 94%
22:00 +11°C° 0 mm 3 mps 748 mmHg 93%
23:00 +11°C° 0 mm 3 mps 748 mmHg 92%

17 August, Monday

Time Temperature Precipitation Wind Pressure Humidity
00:00 +12°C° 0 mm 3 mps 748 mmHg 92%
01:00 +11°C° 0 mm 3 mps 749 mmHg 93%
02:00 +10°C° 0 mm 2 mps 749 mmHg 95%
03:00 +10°C° 0 mm 2 mps 749 mmHg 96%
04:00 +10°C° 0 mm 2 mps 749 mmHg 95%
05:00 +10°C° 0 mm 2 mps 749 mmHg 94%
06:00 +12°C° 0 mm 2 mps 749 mmHg 93%
07:00 +12°C° 0 mm 3 mps 749 mmHg 87%
08:00 +14°C° 0 mm 3 mps 750 mmHg 82%
09:00 +16°C° 0 mm 3 mps 750 mmHg 77%
10:00 +17°C° 0 mm 3 mps 750 mmHg 74%
11:00 +18°C° 0 mm 2 mps 750 mmHg 71%
12:00 +18°C° 0 mm 2 mps 750 mmHg 68%
13:00 +19°C° 0.1 mm 2 mps 750 mmHg 67%
14:00 +19°C° 0.1 mm 2 mps 749 mmHg 65%
15:00 +20°C° 0.1 mm 2 mps 749 mmHg 64%
16:00 +19°C° 0.1 mm 2 mps 749 mmHg 69%
17:00 +18°C° 0.1 mm 2 mps 749 mmHg 73%
18:00 +18°C° 0.1 mm 2 mps 749 mmHg 78%
19:00 +16°C° 0 mm 2 mps 749 mmHg 80%
20:00 +15°C° 0 mm 1 mps 749 mmHg 82%
21:00 +14°C° 0 mm 1 mps 749 mmHg 85%
22:00 +14°C° 0.4 mm 1 mps 749 mmHg 87%
23:00 +13°C° 0.4 mm 1 mps 749 mmHg 90%
Show more